Time,TemperatureF,DewpointF,PressureIn,WindDirection,WindDirectionDegrees,WindSpeedMPH,WindSpeedGustMPH,Humidity,HourlyPrecipIn,Conditions,Clouds,dailyrainin,SoftwareType,DateUTC
2013-07-22 00:22:00,61.0,55.0,-100.00,SE,128,2.0,5.0,81,-99.99,,,0.01,,2013-07-22 07:22:00,
2013-07-22 00:52:00,61.0,55.0,-100.00,SE,128,2.0,5.0,81,-99.99,,,0.01,,2013-07-22 07:52:00,
2013-07-22 01:52:00,60.0,56.0,-100.00,ESE,104,1.0,4.0,87,-99.99,,,0.02,,2013-07-22 08:52:00,
2013-07-22 02:52:00,59.0,58.0,-100.00,ESE,118,2.0,4.0,98,0.01,,,0.03,,2013-07-22 09:52:00,
2013-07-22 03:11:00,62.0,59.0,-100.00,ESE,113,2.0,4.0,91,-99.99,,,0.03,,2013-07-22 10:11:00,
2013-07-22 03:22:00,62.0,59.0,-100.00,ESE,113,2.0,4.0,91,-99.99,,,0.03,,2013-07-22 10:22:00,
2013-07-22 03:32:00,62.0,59.0,-100.00,ESE,113,2.0,4.0,91,-99.99,,,0.03,,2013-07-22 10:32:00,
2013-07-22 03:43:00,62.0,59.0,-100.00,ESE,113,2.0,4.0,91,-99.99,,,0.03,,2013-07-22 10:43:00,
2013-07-22 03:52:00,62.0,59.0,-100.00,ESE,113,2.0,4.0,91,-99.99,,,0.03,,2013-07-22 10:52:00,
2013-07-22 04:22:00,63.0,56.0,-100.00,ESE,105,2.0,4.0,79,0.00,,,0.03,,2013-07-22 11:22:00,
2013-07-22 04:32:00,63.0,56.0,-100.00,ESE,105,2.0,4.0,79,0.00,,,0.03,,2013-07-22 11:32:00,
2013-07-22 04:43:00,63.0,56.0,-100.00,ESE,105,2.0,4.0,79,0.00,,,0.03,,2013-07-22 11:43:00,
2013-07-22 04:52:00,63.0,56.0,-100.00,ESE,105,2.0,4.0,79,0.00,,,0.03,,2013-07-22 11:52:00,
2013-07-22 05:11:00,63.0,55.0,-100.00,ESE,110,1.0,4.0,76,0.00,,,0.03,,2013-07-22 12:11:00,
2013-07-22 05:22:00,63.0,55.0,-100.00,ESE,110,1.0,4.0,76,0.00,,,0.03,,2013-07-22 12:22:00,
2013-07-22 05:32:00,63.0,55.0,-100.00,ESE,110,1.0,4.0,76,0.00,,,0.03,,2013-07-22 12:32:00,
2013-07-22 05:43:00,63.0,55.0,-100.00,ESE,110,1.0,4.0,76,0.00,,,0.03,,2013-07-22 12:43:00,
2013-07-22 05:52:00,63.0,55.0,-100.00,ESE,110,1.0,4.0,76,0.00,,,0.03,,2013-07-22 12:52:00,
2013-07-22 05:53:00,61.0,54.0,-100.00,SE,128,2.0,3.0,79,0.00,,,-99.99,,2013-07-22 12:53:00,
2013-07-22 06:22:00,61.0,54.0,-100.00,SE,128,2.0,3.0,79,0.00,,,-99.99,,2013-07-22 13:22:00,
2013-07-22 06:32:00,61.0,54.0,-100.00,SE,128,2.0,3.0,79,0.00,,,-99.99,,2013-07-22 13:32:00,
2013-07-22 06:43:00,61.0,54.0,-100.00,SE,128,2.0,3.0,79,0.00,,,-99.99,,2013-07-22 13:43:00,
2013-07-22 06:53:00,60.0,56.0,-100.00,ESE,123,2.0,4.0,86,0.00,,,0.03,,2013-07-22 13:53:00,
2013-07-22 07:22:00,60.0,56.0,-100.00,ESE,123,2.0,4.0,86,0.00,,,0.03,,2013-07-22 14:22:00,
2013-07-22 07:32:00,60.0,56.0,-100.00,ESE,123,2.0,4.0,86,0.00,,,0.03,,2013-07-22 14:32:00,
2013-07-22 07:42:00,60.0,56.0,-100.00,ESE,123,2.0,4.0,86,0.00,,,0.03,,2013-07-22 14:42:00,
2013-07-22 08:22:00,65.0,56.0,-100.00,ENE,73,1.0,4.0,73,0.00,,,0.03,,2013-07-22 15:22:00,
2013-07-22 08:32:00,65.0,56.0,-100.00,ENE,73,1.0,4.0,73,0.00,,,0.03,,2013-07-22 15:32:00,
2013-07-22 08:42:00,65.0,56.0,-100.00,ENE,73,1.0,4.0,73,0.00,,,0.03,,2013-07-22 15:42:00,
2013-07-22 08:52:00,65.0,56.0,-100.00,ENE,73,1.0,4.0,73,0.00,,,0.03,,2013-07-22 15:52:00,
2013-07-22 09:21:00,69.0,55.0,-100.00,West,259,2.0,5.0,62,0.00,,,0.03,,2013-07-22 16:21:00,
2013-07-22 09:32:00,69.0,55.0,-100.00,West,259,2.0,5.0,62,0.00,,,0.03,,2013-07-22 16:32:00,
2013-07-22 09:43:00,69.0,55.0,-100.00,West,259,2.0,5.0,62,0.00,,,0.03,,2013-07-22 16:43:00,
2013-07-22 09:52:00,69.0,55.0,-100.00,West,259,2.0,5.0,62,0.00,,,0.03,,2013-07-22 16:52:00,
2013-07-22 10:23:00,74.0,57.0,-100.00,SE,139,5.0,10.0,55,0.00,,,0.03,,2013-07-22 17:23:00,
2013-07-22 10:32:00,74.0,57.0,-100.00,SE,139,5.0,10.0,55,0.00,,,0.03,,2013-07-22 17:32:00,
2013-07-22 10:43:00,74.0,57.0,-100.00,SE,139,5.0,10.0,55,0.00,,,0.03,,2013-07-22 17:43:00,
2013-07-22 10:52:00,74.0,57.0,-100.00,SE,139,5.0,10.0,55,0.00,,,0.03,,2013-07-22 17:52:00,
2013-07-22 10:53:00,78.0,56.0,-100.00,SSE,161,7.0,14.0,46,0.00,,,0.03,,2013-07-22 17:53:00,
2013-07-22 11:23:00,78.0,56.0,-100.00,SSE,161,7.0,14.0,46,0.00,,,0.03,,2013-07-22 18:23:00,
2013-07-22 11:33:00,78.0,56.0,-100.00,SSE,161,7.0,14.0,46,0.00,,,0.03,,2013-07-22 18:33:00,
2013-07-22 11:46:00,78.0,56.0,-100.00,SSE,161,7.0,14.0,46,0.00,,,0.03,,2013-07-22 18:46:00,
2013-07-22 11:53:00,80.0,55.0,-100.00,SSE,156,6.0,15.0,43,0.00,,,0.03,,2013-07-22 18:53:00,
2013-07-22 12:22:00,80.0,55.0,-100.00,SSE,156,6.0,15.0,43,0.00,,,0.03,,2013-07-22 19:22:00,
2013-07-22 12:34:00,80.0,55.0,-100.00,SSE,156,6.0,15.0,43,0.00,,,0.03,,2013-07-22 19:34:00,
2013-07-22 12:43:00,80.0,55.0,-100.00,SSE,156,6.0,15.0,43,0.00,,,0.03,,2013-07-22 19:43:00,
2013-07-22 13:22:00,76.0,53.0,-100.00,WNW,286,3.0,12.0,45,0.00,,,0.03,,2013-07-22 20:22:00,
2013-07-22 13:32:00,76.0,53.0,-100.00,WNW,286,3.0,12.0,45,0.00,,,0.03,,2013-07-22 20:32:00,
2013-07-22 13:43:00,76.0,53.0,-100.00,WNW,286,3.0,12.0,45,0.00,,,0.03,,2013-07-22 20:43:00,
2013-07-22 13:52:00,76.0,53.0,-100.00,WNW,286,3.0,12.0,45,0.00,,,0.03,,2013-07-22 20:52:00,
2013-07-22 14:22:00,76.0,53.0,-100.00,WNW,286,3.0,7.0,45,0.00,,,0.03,,2013-07-22 21:22:00,
2013-07-22 14:32:00,76.0,53.0,-100.00,WNW,286,3.0,7.0,45,0.00,,,0.03,,2013-07-22 21:32:00,
2013-07-22 14:43:00,76.0,53.0,-100.00,WNW,286,3.0,7.0,45,0.00,,,0.03,,2013-07-22 21:43:00,
2013-07-22 14:52:00,76.0,53.0,-100.00,WNW,286,3.0,7.0,45,0.00,,,0.03,,2013-07-22 21:52:00,
2013-07-22 15:22:00,73.0,52.0,-100.00,West,278,4.0,7.0,48,0.00,,,0.03,,2013-07-22 22:22:00,
2013-07-22 15:52:00,73.0,52.0,-100.00,West,278,4.0,7.0,48,0.00,,,0.03,,2013-07-22 22:52:00,
2013-07-22 16:42:00,73.0,54.0,-100.00,WNW,298,5.0,9.0,52,0.00,,,0.03,,2013-07-22 23:42:00,
2013-07-22 16:52:00,73.0,54.0,-100.00,WNW,298,5.0,9.0,52,0.00,,,0.03,,2013-07-22 23:52:00,
2013-07-22 17:52:00,69.0,65.0,-100.00,ENE,77,1.0,10.0,86,0.03,,,0.06,,2013-07-23 00:52:00,
2013-07-22 17:53:00,72.0,51.0,-100.00,WNW,300,5.0,9.0,48,0.01,,,0.07,,2013-07-23 00:53:00,
2013-07-22 18:22:00,72.0,51.0,-100.00,WNW,300,5.0,9.0,48,0.01,,,0.07,,2013-07-23 01:22:00,
2013-07-22 18:32:00,72.0,51.0,-100.00,WNW,300,5.0,9.0,48,0.01,,,0.07,,2013-07-23 01:32:00,
2013-07-22 18:43:00,72.0,51.0,-100.00,WNW,300,5.0,9.0,48,0.01,,,0.07,,2013-07-23 01:43:00,
2013-07-22 19:22:00,68.0,49.0,-100.00,WNW,300,3.0,10.0,50,0.00,,,0.07,,2013-07-23 02:22:00,
2013-07-22 19:33:00,68.0,49.0,-100.00,WNW,300,3.0,10.0,50,0.00,,,0.07,,2013-07-23 02:33:00,
2013-07-22 19:43:00,68.0,49.0,-100.00,WNW,300,3.0,10.0,50,0.00,,,0.07,,2013-07-23 02:43:00,
2013-07-22 19:52:00,68.0,49.0,-100.00,WNW,300,3.0,10.0,50,0.00,,,0.07,,2013-07-23 02:52:00,
2013-07-22 20:11:00,66.0,48.0,-100.00,NE,46,0.0,6.0,53,0.00,,,0.07,,2013-07-23 03:11:00,
2013-07-22 20:22:00,66.0,48.0,-100.00,NE,46,0.0,6.0,53,0.00,,,0.07,,2013-07-23 03:22:00,
2013-07-22 20:33:00,66.0,48.0,-100.00,NE,46,0.0,6.0,53,0.00,,,0.07,,2013-07-23 03:33:00,
2013-07-22 20:43:00,66.0,48.0,-100.00,NE,46,0.0,6.0,53,0.00,,,0.07,,2013-07-23 03:43:00,
2013-07-22 20:52:00,66.0,48.0,-100.00,NE,46,0.0,6.0,53,0.00,,,0.07,,2013-07-23 03:52:00,
2013-07-22 20:53:00,64.0,49.0,-100.00,ESE,103,1.0,5.0,59,0.00,,,0.07,,2013-07-23 03:53:00,
2013-07-22 21:21:00,64.0,49.0,-100.00,ESE,103,1.0,5.0,59,0.00,,,0.07,,2013-07-23 04:21:00,
2013-07-22 21:32:00,64.0,49.0,-100.00,ESE,103,1.0,5.0,59,0.00,,,0.07,,2013-07-23 04:32:00,
2013-07-22 21:42:00,64.0,49.0,-100.00,ESE,103,1.0,5.0,59,0.00,,,0.07,,2013-07-23 04:42:00,
2013-07-22 22:22:00,60.0,51.0,-100.00,ESE,116,1.0,3.0,71,0.00,,,0.07,,2013-07-23 05:22:00,
2013-07-22 22:33:00,60.0,51.0,-100.00,ESE,116,1.0,3.0,71,0.00,,,0.07,,2013-07-23 05:33:00,
2013-07-22 22:52:00,60.0,51.0,-100.00,ESE,116,1.0,3.0,71,0.00,,,0.07,,2013-07-23 05:52:00,
2013-07-22 23:33:00,60.0,50.0,-100.00,SE,126,2.0,3.0,69,-99.99,,,0.06,,2013-07-23 06:33:00,
2013-07-22 23:42:00,60.0,50.0,-100.00,SE,126,2.0,3.0,69,-99.99,,,0.06,,2013-07-23 06:42:00,
2013-07-22 23:52:00,60.0,50.0,-100.00,SE,126,2.0,3.0,69,-99.99,,,0.06,,2013-07-23 06:52:00,